Regional Weather Roundup
Issued by NWS

Home | Current Version | Previous Version | Text Only | Print | Product List | Glossary Off
Versions: 1 2 3 4 5 6 7 8 9 10 11 12 13 14 15 16 17 18 19 20 21 22 23 24 25 26 27 28 29 30 31 32 33 34 35 36 37 38 39 40 41 42 43 44 45 46 47 48 49 50

000
ASUS43 KLOT 232010
RWRIL

ILLINOIS REGIONAL WEATHER ROUNDUP
NATIONAL WEATHER SERVICE CHICAGO/ROMEOVILLE IL
300 PM CDT WED JUL 23 2014

NOTE: "FAIR" INDICATES FEW OR NO CLOUDS BELOW 12,000 FEET WITH NO
SIGNIFICANT WEATHER AND/OR OBSTRUCTIONS TO VISIBILITY.

* THESE STATIONS ARE NOT UNDER NWS QUALITY CONTROL. THEY ALSO MAY NOT
  REPORT WEATHER SUCH AS PRECIPITATION OR FOG.

ILZ001-002-007-009-015-016-024-232100-
NORTHWEST ILLINOIS

CITY           SKY/WX    TMP DP  RH WIND       PRES   REMARKS
MOLINE         MOSUNNY   80  55  42 N13       30.16F HX  80
STERLING*      MOSUNNY   79  57  47 NE14      30.16F HX  80
SAVANNA*       MOSUNNY   78  53  41 NE9       30.17F
$$

ILZ003-004-008-010-011-017-018-232100-
NORTH CENTRAL ILLINOIS

CITY           SKY/WX    TMP DP  RH WIND       PRES   REMARKS
ROCKFORD       PTSUNNY   78  55  44 NE14      30.17F
FREEPORT*      PTSUNNY   72  56  55 N10       30.19F
ROCHELLE*      MOSUNNY   77  55  46 N12       30.16F
DE KALB*       PTSUNNY   73  54  50 NE10      30.16F
PERU*          MOSUNNY   78  57  47 N15       30.14S
$$

ILZ005-006-012>014-019>023-232100-
NORTHEAST ILLINOIS

CITY           SKY/WX    TMP DP  RH WIND       PRES   REMARKS
CHICAGO-OHARE  MOSUNNY   74  45  35 NE22G29   30.15S
CHICAGO-MIDWAY MOSUNNY   74  54  49 NE16G23   30.14S
AURORA         SUNNY     78  52  40 N17       30.14F
LANSING*       SUNNY     68  54  61 N17G24    30.15R
JOLIET*        SUNNY     75  46  35 NE16G24   30.14S
WAUKEGAN       SUNNY     67  51  56 N14G24    30.16F
DUPAGE AIRPORT SUNNY     77  51  40 NE18G28   30.13F
KANKAKEE*      SUNNY     73  54  52 NE15G21   30.13S
WHEELING       SUNNY     71  48  43 NE16G26   30.17F
MORRIS*        SUNNY     77  53  43 NE8       30.12F
ROMEOVILLE*    SUNNY     74  46  36 NE22G28   30.13F
NORTHERLY ISL    N/A     65  56  72 N14         N/A
$$

LMZ740>746-232100-
SOUTHERN LAKE MICHIGAN

STATION/POSITION SKY/WX   TEMP    WIND        PRES    VSBY  WAVE
                          AIR SEA DIR/SP/G                  HT/PER
                          (F)     (DEG/KT/KT) (MB)    (MI)  (FT/S)
SOUTHERN BUOY              59 60  350/ 19/ 21 1021.1F         4/ 6
WAUKEGAN HARBOR            62      20/ 15/ 19 1022.4S
HARRISON CRIB              62     360/ 21/ 25   N/A
BURNHAM HARBOR             66     360/  8/ 17   N/A
CALUMET HARBOR             65     350/ 12/ 18 1020.0F
MICHIGAN CITY              62     350/ 21/ 24   N/A
$$

ILZ025>027-034>036-040-047-049-050-058-095>099-232100-
WEST-CENTRAL ILLINOIS

CITY           SKY/WX    TMP DP  RH WIND       PRES   REMARKS
QUINCY         MOSUNNY   79  65  62 NE16      30.13S HX  81
GALESBURG*     MOSUNNY   80  60  50 N14       30.15F HX  81
MACOMB*        MOSUNNY   77  60  55 N13       30.16F
JACKSONVILLE*  MOSUNNY   82  65  55 NE12      30.12S HX  84
PITTSFIELD*    PTSUNNY   80  66  61 N12       30.12S HX  82
$$

ILZ028>032-037-038-041>044-048-051>054-059>061-232100-
CENTRAL ILLINOIS

CITY           SKY/WX    TMP DP  RH WIND       PRES   REMARKS
PONTIAC        SUNNY     77  55  47 N16       30.12F
BLOOMINGTON    MOSUNNY   93  73  52 NE16      30.13S HX 101
DECATUR        SUNNY     82  63  51 NE14      30.09F HX  83
PEORIA         SUNNY     81  56  42 NE13G22   30.12F HX  81
LACON*         MOSUNNY   78  56  47 NE8G16    30.12F
LINCOLN*       PTSUNNY   79  60  52 N13G18    30.08S HX  80
SPRINGFIELD    SUNNY     82  62  50 NE14      30.10S HX  83
TAYLORVILLE    MOSUNNY   77  63  61 N14G22    30.09R
$$

ILZ033-039-045-046-055>057-062-063-232100-
EAST-CENTRAL ILLINOIS

CITY           SKY/WX    TMP DP  RH WIND       PRES   REMARKS
CHAMPAIGN      SUNNY     78  61  55 N14       30.08S HX  80
RANTOUL*       SUNNY     79  55  44 N18G24    30.10F
MATTOON        MOSUNNY   79  64  60 N14       30.05S HX  81
PARIS*         MOSUNNY   79  67  66 N12       30.06S HX  81
$$

ILZ079-100>102-232100-
SOUTHWEST ILLINOIS

CITY           SKY/WX    TMP DP  RH WIND       PRES   REMARKS
ALTON          PTSUNNY   79  72  78 N18       30.07S HX  82
BELLEVILLE     CLOUDY    80  71  74 N12       30.04F HX  83
CAHOKIA*       PTSUNNY   84  70  62 NE15      30.05S HX  88
SPARTA*        CLOUDY    82  73  74 NE8       30.03F HX  88
$$

ILZ064>066-069>071-074>076-080>082-084>086-088>090-092>094-232100-
SOUTH-CENTRAL ILLINOIS

CITY           SKY/WX    TMP DP  RH WIND       PRES   REMARKS
CARBONDALE     CLOUDY    79  69  71 SW8       30.00F HX  81
CAIRO*         CLOUDY    75  68  78 W8        29.98R
MARION         PTSUNNY   77  72  83 N9        30.03R
MT. VERNON     CLOUDY    77  70  78 N7        30.04F
CENTRALIA*     CLOUDY    77  68  73 N7        30.05F
SALEM*         CLOUDY    77  69  76 N5        30.05F
METROPOLIS*    CLOUDY    73  66  80 CALM      29.97F
$$

ILZ067-068-072-073-078-083-087-091-232100-
SOUTHEAST ILLINOIS

CITY           SKY/WX    TMP DP  RH WIND       PRES   REMARKS
FLORA*         PTSUNNY   72  69  89 N3        30.05F
FAIRFIELD*     DRIZZLE   73  72  94 N5        30.04S
HARRISBURG*    CLOUDY    75  71  88 N5        30.03F
ROBINSON*      CLOUDY    75  71  87 N9        30.03F FOG
CARMI*         CLOUDY    81  73  78 NW7       30.01F HX  85
$$

ABBREVIATIONS USED IN REMARKS
   TC - TEMPERATURE IN CELSIUS
  WCI - WIND CHILL INDEX
   HX - HEAT INDEX
  VSB - VISIBILITY
$$



USA.gov is the U.S. government's official web portal to all federal, state and local government web resources and services.